Alexandria, LA

3:10 PM CDT on May 23, 2017 (GMT -0500)
Alexandria International

Weather History for KAEX - December, 1997

Change the Weather History Date:

Friday, December 26, 1997

  Actual Average Record
Temperature  
Mean Temperature 50 °F 49 °F  
Max Temperature 57 °F 59 °F 81 °F (2015)
Min Temperature 42 °F 40 °F 9 °F (1983)
Degree Days  
Heating Degree Days 16 16  
Month to date heating degree days 385  
Since 1 July heating degree days 710  
Moisture  
Dew Point 40 °F    
Average Humidity 85    
Maximum Humidity 93    
Minimum Humidity 76    
Precipitation  
Precipitation 0.00 in 0.17 in 7.20 in (1982)
Month to date precipitation 5.43  
Year to date precipitation 55.23  
Snow  
Snow 0.00 in - 0.00 in ()
Month to date snowfall  
Since 1 July snowfall  
Snow Depth -    
Sea Level Pressure  
Sea Level Pressure 30.06 in    
Wind  
Wind Speed 12 mph (North)    
Max Wind Speed 23 mph    
Max Gust Speed -    
Visibility 8 miles    
Events Rain    
T = Trace of Precipitation, MM = Missing Value Source: NWS Daily Summary

Daily Weather History Graph

Daily Weather History Graph

Search for Another Location

Airport or City:

Trip Planner

Search our weather history database for the weather conditions in past years. The results will help you decide how hot, cold, wet, or windy it might be!

Date:

Astronomy

Dec. 26, 1997 Rise Set
Actual Time 7:07 AM CST 5:14 PM CST
Civil Twilight 6:40 AM CST 5:41 PM CST
Nautical Twilight 6:10 AM CST 6:11 PM CST
Astronomical Twilight 5:40 AM CST 6:41 PM CST
Moon 4:00 AM CST (12/26) 3:06 PM CST (12/26)
Length of Visible Light 11h 00m
Length of Day
10h 07m
Waning Crescent, 10% of the Moon is Illuminated
Dec 26
Waning Crescent
Dec 29
New
Jan 5
First Quarter
Jan 12
Full
Jan 20
Last Quarter

Hourly Weather History & Observations

Time (CST) Temp. Windchill Dew Point Humidity Pressure Visibility Wind Dir Wind Speed Gust Speed Precip Events Conditions
12:57 AM 46.4 °F 40.4 °F 39.2 °F 76% 30.09 in 10.0 mi NNE 13.8 mph - N/A   Overcast
1:55 AM 44.6 °F 38.8 °F 39.2 °F 81% 30.10 in 10.0 mi NNE 11.5 mph - N/A   Overcast
2:50 AM 44.6 °F 38.8 °F 39.2 °F 81% 30.09 in 10.0 mi NE 11.5 mph - N/A   Overcast
3:50 AM 42.8 °F 35.8 °F 39.2 °F 87% 30.06 in 10.0 mi NNE 13.8 mph - N/A   Scattered Clouds
4:50 AM 42.8 °F 38.0 °F 39.2 °F 87% 30.10 in 10.0 mi NE 8.1 mph - N/A   Overcast
5:50 AM 42.8 °F 37.5 °F 39.2 °F 87% 30.08 in 10.0 mi NNE 9.2 mph - N/A   Mostly Cloudy
6:50 AM 42.8 °F 38.6 °F 39.2 °F 87% 30.09 in 10.0 mi NNE 6.9 mph - N/A   Overcast
7:50 AM 42.8 °F 36.6 °F 39.2 °F 87% 30.04 in 10.0 mi East 11.5 mph - N/A   Overcast
8:53 AM 42.8 °F 39.3 °F 39.2 °F 87% 30.06 in 7.0 mi NNE 5.8 mph - N/A   Scattered Clouds
9:55 AM 44.6 °F 38.1 °F 39.2 °F 81% 30.10 in 7.0 mi NW 13.8 mph - N/A   Overcast
10:50 AM 46.4 °F 40.4 °F 39.2 °F 76% 30.08 in 10.0 mi North 13.8 mph - N/A   Overcast
11:50 AM 46.4 °F 41.1 °F 39.2 °F 76% 30.07 in 10.0 mi North 11.5 mph - N/A   Overcast
12:50 PM 46.4 °F 40.4 °F 39.2 °F 76% 30.05 in 6.0 mi NNW 13.8 mph - N/A Rain Light Rain
2:47 PM 57.2 °F - 51.8 °F 82% 29.89 in 7.0 mi ENE 9.2 mph - N/A   Overcast
2:50 PM 44.6 °F 37.2 °F 42.8 °F 93% 30.05 in 7.0 mi North 17.3 mph - N/A   Overcast
3:50 PM 44.6 °F 38.8 °F 42.8 °F 93% 30.02 in 7.0 mi North 11.5 mph - N/A   Overcast
4:50 PM 42.8 °F 37.5 °F 39.2 °F 87% 30.02 in 7.0 mi North 9.2 mph - N/A   Overcast
5:50 PM 42.8 °F 37.5 °F 39.2 °F 87% 30.02 in 10.0 mi North 9.2 mph - N/A   Overcast
6:50 PM 42.8 °F 36.6 °F 41.0 °F 93% 30.04 in 7.0 mi NNW 11.5 mph - N/A   Overcast
7:50 PM 42.8 °F 36.6 °F 41.0 °F 93% 30.03 in 7.0 mi NNW 11.5 mph - N/A   Overcast
8:47 PM 42.8 °F 36.6 °F 39.2 °F 87% 30.08 in 7.0 mi NNW 11.5 mph - N/A   Overcast
9:47 PM 42.8 °F 35.8 °F 39.2 °F 87% 30.08 in 7.0 mi NW 13.8 mph - N/A   Overcast
10:47 PM 42.8 °F 36.6 °F 39.2 °F 87% 30.10 in 7.0 mi NW 11.5 mph - N/A   Overcast
11:47 PM 42.8 °F 33.5 °F 39.2 °F 87% 30.10 in 7.0 mi NW 23.0 mph - N/A   Overcast